Location: The Saddle
(36.8333°N, 80.3417°W)
Time: 04:49:02
(UTC-04:00)

CUTE-I - Visible Passes

Search period start: 16 September 2024 00:00
Search period end: 26 September 2024 00:00
Orbit: 807 x 820 km, 98.7° (Epoch: 15 September)

Date Brightness Start Highest point End Pass type
(mag) Time Alt. Az. Time Alt. Az. Time Alt. Az.
16 Sep ? 06:21:54 10° ENE 06:24:33 14° E 06:27:11 10° ESE visible
18 Sep ? 20:15:45 10° SW 20:18:39 15° W 20:21:35 10° WNW visible
19 Sep ? 19:51:30 10° SSW 19:55:48 25° W 20:00:08 10° NW visible
20 Sep ? 06:30:32 10° NE 06:33:57 17° E 06:37:22 10° SE visible
22 Sep ? 20:26:15 10° WSW 20:28:03 12° W 20:29:51 10° WNW visible
23 Sep ? 20:01:17 10° SW 20:05:08 20° W 20:09:01 10° NW visible
24 Sep ? 06:39:20 10° NE 06:43:19 21° E 06:47:16 10° SE visible
24 Sep ? 19:37:32 10° SSW 19:42:18 33° W 19:47:07 10° NNW visible
25 Sep ? 06:18:16 10° ENE 06:20:24 12° E 06:22:31 10° ESE visible
